Gold Coast Seaway Observation History
Time Wind Speed Temp Pressure Rel. Hum Rain
30/05:00am SW 5-7 kts 16.2°c 1023.5 hPa 77% 0.0mm
30/04:30am SSW 8-11 kts 16.3°c 1023.2 hPa 75% 0.0mm
30/04:00am S 9-15 kts 16.7°c 1023.0 hPa 74% 0.0mm
30/03:30am S 13-18 kts 16.9°c 1022.9 hPa 72% 0.0mm
30/03:00am S 12-18 kts 17.0°c 1022.8 hPa 72% 0.0mm
30/02:30am SSW 9-16 kts 17.0°c 1022.8 hPa 73% 0.0mm
30/02:00am S 11-19 kts 17.1°c 1023.0 hPa 73% 0.0mm
30/01:30am S 13-19 kts 17.3°c 1023.2 hPa 72% 0.0mm
30/01:00am SSW 7-13 kts 16.6°c 1023.2 hPa 75% 0.0mm
30/12:30am S 7-9 kts 16.6°c 1023.3 hPa 74% 0.0mm
30/12:00am SSW 8-12 kts 16.9°c 1023.5 hPa 72% 0.0mm
Time Wind Speed Temp Pressure Rel. Hum Rain
29/11:30pm S 9-14 kts 17.2°c 1023.6 hPa 71% 0.0mm
29/11:00pm S 10-13 kts 17.4°c 1023.7 hPa 70% 0.0mm
29/10:30pm S 13-17 kts 17.5°c 1023.8 hPa 69% 0.0mm
29/10:00pm S 13-17 kts 17.6°c 1023.9 hPa 69% 0.0mm
29/09:30pm S 12-18 kts 17.6°c 1023.9 hPa 69% 0.0mm
29/09:00pm S 11-16 kts 17.7°c 1023.8 hPa 69% 0.0mm
29/08:30pm S 14-18 kts 17.9°c 1023.7 hPa 68% 0.0mm
29/08:00pm S 13-19 kts 18.3°c 1023.5 hPa 67% 0.0mm
29/07:30pm S 17-23 kts 18.5°c 1023.4 hPa 66% 0.0mm
29/07:00pm S 18-23 kts 18.6°c 1023.3 hPa 66% 0.0mm
29/06:30pm S 17-21 kts 18.6°c 1023.1 hPa 66% 0.0mm
29/06:00pm S 15-19 kts 18.7°c 1022.6 hPa 64% 0.0mm
29/05:30pm S 13-17 kts 19.0°c 1022.5 hPa 63% 0.0mm
29/05:00pm S 19-24 kts 19.7°c 1022.2 hPa 63% 0.0mm
29/04:30pm SSE 19-23 kts 20.4°c 1022.0 hPa 62% 0.0mm
29/04:00pm SSE 19-23 kts 21.1°c 1021.5 hPa 60% 0.0mm
29/03:30pm SSE 19-25 kts 21.4°c 1021.3 hPa 62% 0.0mm
29/03:00pm SSE 21-27 kts 21.7°c 1021.1 hPa 65% 0.0mm
29/02:30pm SSE 17-21 kts 21.9°c 1021.0 hPa 61% 0.0mm
29/02:00pm SSE 17-20 kts 23.3°c 1021.0 hPa 59% 0.0mm
29/01:30pm SSE 16-19 kts 23.1°c 1021.0 hPa 59% 0.0mm
29/01:00pm S 16-19 kts 24.4°c 1021.2 hPa 57% 0.0mm
29/12:30pm S 17-20 kts 22.9°c 1021.5 hPa 61% 0.0mm
29/12:00pm SSE 17-21 kts 22.3°c 1021.8 hPa 60% 0.0mm
29/11:30am S 18-21 kts 22.2°c 1022.1 hPa 61% 0.0mm
29/11:00am S 18-22 kts 22.3°c 1022.4 hPa 62% 0.0mm
29/10:30am S 18-22 kts 21.7°c 1022.5 hPa 62% 0.0mm
29/10:00am SSE 18-23 kts 22.3°c 1022.6 hPa 64% 0.0mm
29/09:30am S 16-20 kts 21.0°c 1022.7 hPa 66% 0.0mm
29/09:00am S 15-19 kts 20.8°c 1022.6 hPa 66% 0.0mm
29/08:30am S 16-19 kts 21.1°c 1022.3 hPa 69% 0.0mm
29/08:00am S 16-20 kts 21.0°c 1022.1 hPa 69% 0.0mm
29/07:30am S 8-11 kts 19.2°c 1021.8 hPa 76% 0.0mm
29/07:00am S 9-11 kts 17.9°c 1021.5 hPa 82% 0.0mm
29/06:30am S 8-9 kts 17.0°c 1021.1 hPa 81% 0.0mm
29/06:00am S 9-10 kts 17.2°c 1020.9 hPa 80% 0.0mm
29/05:30am S 9-14 kts 17.8°c 1020.7 hPa 79% 0.0mm
29/05:00am S 10-14 kts 18.0°c 1020.4 hPa 80% 0.0mm
29/04:30am S 15-20 kts 18.0°c 1020.1 hPa 81% 0.0mm
29/04:00am S 10-15 kts 17.7°c 1019.9 hPa 81% 0.0mm
29/03:30am S 9-13 kts 17.7°c 1019.8 hPa 84% 0.0mm
29/03:00am S 9-12 kts 17.4°c 1019.7 hPa 84% 0.0mm
29/02:30am SW 5-6 kts 17.6°c 1019.5 hPa 84% 0.0mm
29/02:00am SW 6-8 kts 17.7°c 1019.5 hPa 84% 0.0mm
29/01:30am WSW 5-7 kts 17.9°c 1019.6 hPa 83% 0.0mm
29/01:00am SW 5-7 kts 18.1°c 1019.6 hPa 83% 0.0mm
29/12:30am SW 6-9 kts 18.2°c 1019.7 hPa 83% 0.0mm
29/12:00am SSW 6-8 kts 18.3°c 1019.9 hPa 83% 0.0mm
Time Wind Speed Temp Pressure Rel. Hum Rain
28/11:30pm SW 6-7 kts 18.1°c 1020.2 hPa 82% 0.0mm
28/11:00pm SW 5-6 kts 18.5°c 1020.6 hPa 81% 0.0mm
28/10:30pm SW 5-6 kts 18.4°c 1020.6 hPa 81% 0.0mm
28/10:00pm SW 5-7 kts 18.4°c 1020.4 hPa 81% 0.0mm
28/09:30pm SW 5-7 kts 18.6°c 1020.4 hPa 80% 0.0mm
28/09:00pm SSW 7-8 kts 18.9°c 1020.1 hPa 80% 0.0mm
28/08:30pm S 8-10 kts 19.2°c 1020.0 hPa 79% 0.0mm
28/08:00pm S 10-13 kts 19.3°c 1020.0 hPa 78% 0.0mm
28/07:30pm S 8-10 kts 19.5°c 1019.9 hPa 78% 0.0mm
28/07:00pm S 10-12 kts 20.0°c 1019.4 hPa 78% 0.0mm
28/06:30pm SSE 12-14 kts 20.5°c 1019.0 hPa 78% 0.0mm
28/06:00pm SSE 13-15 kts 20.7°c 1018.6 hPa 77% 0.0mm
28/05:30pm SSE 12-14 kts 20.6°c 1018.5 hPa 76% 0.0mm
28/05:00pm SE 11-14 kts 20.7°c 1018.4 hPa 76% 0.0mm
28/04:30pm SE 11-13 kts 20.9°c 1017.9 hPa 74% 0.0mm
28/04:00pm SE 8-9 kts 21.8°c 1017.9 hPa 72% 0.0mm
28/03:30pm ESE 8-9 kts 22.0°c 1017.8 hPa 69% 0.0mm
28/03:00pm ESE 6-7 kts 22.2°c 1017.8 hPa 67% 0.0mm
28/02:30pm E 6-7 kts 22.1°c 1018.0 hPa 67% 0.0mm
28/02:00pm E 7-8 kts 21.8°c 1018.2 hPa 65% 0.0mm
28/01:30pm ENE 7-8 kts 22.3°c 1018.1 hPa 64% 0.0mm
28/01:00pm ENE 7-8 kts 21.7°c 1018.4 hPa 67% 0.0mm
28/12:30pm NE 6-7 kts 23.0°c 1018.8 hPa 65% 0.0mm
28/12:00pm ENE 4-5 kts 23.1°c 1019.1 hPa 66% 0.0mm
28/11:30am E 5-6 kts 22.1°c 1019.6 hPa 66% 0.0mm
28/11:00am SE 5-6 kts 21.5°c 1020.2 hPa 68% 0.0mm
28/10:30am SSE 4-5 kts 21.1°c 1020.3 hPa 70% 0.0mm
28/10:00am SSW 3-4 kts 20.5°c 1020.5 hPa 71% 0.0mm
28/09:30am W 4-5 kts 19.4°c 1020.9 hPa 74% 0.0mm
28/09:00am WNW 4-5 kts 18.4°c 1020.6 hPa 78% 0.0mm
28/08:30am WNW 6 kts 18.1°c 1020.6 hPa 78% 0.0mm
28/08:00am W 4-6 kts 18.0°c 1020.3 hPa 80% 0.0mm
28/07:30am W 5-6 kts 17.4°c 1019.9 hPa 80% 0.0mm
28/07:00am WSW 5-6 kts 17.2°c 1019.7 hPa 81% 0.0mm
28/06:30am WSW 6-7 kts 17.1°c 1019.5 hPa 83% 0.0mm
28/06:00am W 6-7 kts 17.3°c 1019.5 hPa 82% 0.0mm
28/05:30am SW 4-5 kts 16.9°c 1018.8 hPa 81% 0.0mm
28/05:00am WSW 5-6 kts 17.1°c 1018.8 hPa 81% 0.0mm
28/04:30am WSW 5-6 kts 17.1°c 1018.5 hPa 82% 0.0mm
28/04:00am W 5-7 kts 17.1°c 1018.7 hPa 83% 0.0mm
28/03:30am WNW 5-6 kts 17.1°c 1018.7 hPa 82% 0.0mm
28/03:00am WNW 5-6 kts 17.1°c 1018.9 hPa 84% 0.0mm
28/02:30am SW 4-5 kts 16.8°c 1018.9 hPa 83% 0.0mm
28/02:00am W 5-6 kts 17.2°c 1019.4 hPa 82% 0.0mm
28/01:30am WSW 5-6 kts 17.3°c 1019.3 hPa 83% 0.0mm
28/01:00am WSW 5-7 kts 17.2°c 1019.4 hPa 83% 0.0mm
28/12:30am W 6 kts 17.4°c 1019.3 hPa 83% 0.0mm
28/12:00am WSW 5 kts 17.4°c 1019.4 hPa 83% 0.0mm